Airport Information

KYKM - Yakima Air Terminal McAllister Field Airport

KYKM 251853Z 00000KT 10SM -RA OVC095 18/12 A3002 RMK AO2 RAB1754 SLP163 P0001 T01830117


  • General Information

  • Coordinates: N 46°34'5"/ W 120°32'38"
  • Location: N/A
  • Surveyed Elevation: 1095 MSL

Operations

Flow Name Active Runways Conditions

Green background denotes normal operations.


Common Frequencies

Callsign Frequency Position Name

More at the Document Center


Charts


Flights